Content
SEND FEEDBACK

Daily
Averages
Monthly
Summary
United States of America

ASATDAS, GUAM


Home > North America > United States > Guam
Elevation: 612 feet     Latitude: 13 35N     Longitude: 144 56E

WEATHER
 
SELECT A DAY
Number of Records: 214,775;   Date Range: 1/1/95 - 11/21/14
 
SHARE

PRINT THIS DATA

[ ← Previous Day ]
WEATHER ALMANAC - OCTOBER 13, 2013
[ Next Day → ]
[ °C ]   °F
Weather ElementAverageHighLow
Temperature80.6 °F84.9 °F (8:54 am)75.2 °F (11:01 am)
Dewpoint76.2 °F79 °F (9:54 am)72 °F (10:54 am)
Humidity86.6 %94 % (11:01 am)74 % (4:54 pm)
Barometer29.81 in29.89 in (10:54 pm)29.73 in (3:54 am)
Wind Speed10.8 mph17.3 mph (7:54 am)
Wind Gust34.5 mph (10:54 am)
Weather ElementAverage
Visibility8.8 mi
Wind DirectionSSE (157.4 °)

Weather ElementTotal
Precipitation1.23 in
Cooling Degree Days15.1 (Base 65)
Growing Degree Days30.1 (Base 50)
Averaged from 47 records on October 13, 2013
WEATHER CONDITIONS BREAKOUT
WIND DIRECTION BREAKOUT
WEATHER BY HOUR - OCTOBER 13, 2013
[ °C ]   °F
Local TimeTemperatureDewpointHumidityBarometerVisibilityWind DirectionWind SpeedGust SpeedPrecipitationEventsConditions
1:03 AM82.4 °F77.0 °F84 %29.78 in10.0 miSSE (160°)13.8 mph25.3 mphMostly Cloudy
1:30 AM82.4 °F78.8 °F89 %29.77 in10.0 miSSE (150°)13.8 mph21.9 mphScattered Clouds
1:54 AM82.0 °F78.1 °F88 %29.74 in10.0 miSSE (160°)13.8 mph21.9 mphScattered Clouds
2:04 AM82.4 °F78.8 °F89 %29.76 in10.0 miSSE (150°)16.1 mph24.2 mphMostly Cloudy
2:14 AM82.4 °F78.8 °F89 %29.75 in10.0 miSSE (150°)15.0 mph25.3 mphMostly Cloudy
2:31 AM82.4 °F77.0 °F84 %29.76 in10.0 miSSE (160°)15.0 mph24.2 mphScattered Clouds
2:54 AM82.0 °F78.1 °F88 %29.74 in10.0 miSSE (160°)12.7 mph24.2 mphMostly Cloudy
3:28 AM82.4 °F78.8 °F89 %29.76 in10.0 miSSE (150°)13.8 mph25.3 mphScattered Clouds
3:54 AM82.0 °F78.1 °F88 %29.73 in10.0 miSSE (160°)15.0 mph23.0 mphMostly Cloudy
4:32 AM82.4 °F78.8 °F89 %29.76 in10.0 miSSE (150°)12.7 mphMostly Cloudy
4:39 AM82.4 °F78.8 °F89 %29.76 in10.0 miSSE (160°)13.8 mphScattered Clouds
4:54 AM82.0 °F77.0 °F85 %29.73 in10.0 miSSE (160°)9.2 mphPartly Cloudy
5:54 AM82.0 °F77.0 °F85 %29.76 in10.0 miSSE (160°)11.5 mphScattered Clouds
6:10 AM82.4 °F78.8 °F89 %29.79 in10.0 miSSE (160°)10.4 mph19.6 mphMostly Cloudy
6:54 AM82.9 °F78.1 °F85 %29.78 in10.0 miSSE (160°)13.8 mph21.9 mphMostly Cloudy
7:02 AM82.4 °F77.0 °F84 %29.81 in10.0 miSSE (160°)13.8 mph20.7 mphMostly Cloudy
7:54 AM82.9 °F78.1 °F85 %29.81 in10.0 miSSE (150°)17.3 mph25.3 mphMostly Cloudy
8:08 AM84.2 °F78.8 °F84 %29.84 in10.0 miSSE (160°)16.1 mph21.9 mphScattered Clouds
8:54 AM84.9 °F78.1 °F80 %29.83 in10.0 miSSE (160°)16.1 mph24.2 mphPartly Cloudy
9:54 AM84.9 °F79.0 °F82 %29.83 in10.0 miSSE (160°)12.7 mph23.0 mphMostly Cloudy
10:38 AM84.2 °F78.8 °F84 %29.86 in10.0 miSouth (170°)10.4 mph20.7 mphOvercast
10:39 AM84.2 °F78.8 °F84 %29.86 in10.0 miSouth (170°)11.5 mph20.7 mphOvercast
10:40 AM84.2 °F78.8 °F84 %29.86 in10.0 miSouth (170°)10.4 mph20.7 mphOvercast
10:54 AM78.1 °F72.0 °F81 %29.85 in6.0 miSW (220°)16.1 mph34.5 mph0.00 inRainLight Rain
11:01 AM75.2 °F73.4 °F94 %29.87 in1.0 miSSW (210°)13.8 mph24.2 mph0.02 inRainHeavy Rain
11:05 AM75.2 °F73.4 °F94 %29.87 in2.0 miSSW (210°)11.5 mph23.0 mph0.11 inRainRain
11:07 AM75.2 °F73.4 °F94 %29.87 in4.0 miSW (220°)11.5 mph23.0 mph0.12 inRainLight Rain
11:11 AM75.2 °F73.4 °F94 %29.87 in2.5 miSSW (210°)12.7 mph19.6 mph0.13 inRainLight Rain
11:20 AM75.2 °F73.4 °F94 %29.86 in1.2 miSouth (190°)8.1 mph18.4 mph0.18 inRainHeavy Rain
11:21 AM75.2 °F73.4 °F94 %29.86 in2.0 miVariable5.8 mph0.19 inRainHeavy Rain
11:24 AM75.2 °F73.4 °F94 %29.86 in4.0 miVariable3.5 mph0.22 inRainLight Rain
11:54 AM78.1 °F75.0 °F90 %29.82 in10.0 miSouth (180°)8.1 mph0.23 inMostly Cloudy
12:54 PM81.0 °F75.9 °F85 %29.79 in10.0 miSouth (180°)11.5 mph0.03 inMostly Cloudy
1:28 PM80.6 °F75.2 °F84 %29.81 in10.0 miSouth (180°)12.7 mph23.0 mphOvercast
1:49 PM78.8 °F75.2 °F89 %29.82 in10.0 miSouth (190°)10.4 mph19.6 mph0.00 inRainLight Rain
1:54 PM80.1 °F75.9 °F87 %29.79 in10.0 miSouth (180°)11.5 mph18.4 mph0.00 inRainLight Rain
2:08 PM78.8 °F77.0 °F94 %29.81 in10.0 miSSW (200°)8.1 mph16.1 mph0.00 inRainLight Rain
2:54 PM79.0 °F73.0 °F82 %29.76 in10.0 miSSE (150°)6.9 mph0.00 inScattered Clouds
3:54 PM81.0 °F73.9 °F79 %29.76 in10.0 miSE (130°)5.8 mphScattered Clouds
4:54 PM82.0 °F73.0 °F74 %29.78 in10.0 miSSE (150°)5.8 mphScattered Clouds
5:54 PM81.0 °F73.0 °F77 %29.80 in10.0 miSE (140°)3.5 mphScattered Clouds
6:54 PM79.0 °F73.0 °F82 %29.83 in10.0 miESE (120°)4.6 mphScattered Clouds
7:54 PM79.0 °F73.9 °F84 %29.86 in10.0 miSE (140°)4.6 mphPartly Cloudy
8:54 PM79.0 °F73.9 °F84 %29.88 in10.0 miSE (140°)5.8 mphPartly Cloudy
9:54 PM79.0 °F75.0 °F88 %29.88 in10.0 miSE (140°)5.8 mphPartly Cloudy
10:54 PM80.1 °F75.9 °F87 %29.89 in10.0 miSE (140°)5.8 mphPartly Cloudy
11:54 PM80.1 °F77.0 °F90 %29.87 in10.0 miSE (130°)5.8 mphPartly Cloudy
Hourly data recorded from PGUM, located miles away from Asatdas, Guam







STORIES FROM OUR PARTNERS